Location: ????????
(55.0559°N, 39.1270°E)
Time: 01:09:30
(UTC+00:00)

NOSS 2-1 (C) - Pass Details

Date: 15 November 2025
Orbit: 375 x 1687 km, 63.3° (Epoch: 12 December)

Event Time Altitude Azimuth Distance (km) Brightness Sun altitude
Exits shadow 03:51:14 12° 312° (NW) 1,296 4.7 -9.1°
Maximum altitude 03:53:04 18° 355° (N) 1,015 4.5 -8.9°
Drops below altitude 10° 03:55:19 10° 42° (NE) 1,445 5.8 -8.6°
Sets 03:57:54 0° 63° (ENE) 2,402 7.3 -8.2°
